Theta_e
318 320 323 325 325 324 323 324 326 327 328 327 326 326 326 325 325 325 326 326 324 324 323 324 325 325 325 327 328 328 327 327 327 325 325 326 323 322 327 324 324 327 327 328 326 322 321 316 320 328 331 331 331 333 332 333 335 336 337 337 334 335 337
321 321 322 323 323 324 324 324 326 325 326 326 325 326 326 323 321 321 321 320 319 318 318 319 322 324 326 326 326 325 325 324 325 325 324 323 324 322 323 324 325 325 327 328 326 324 321 318 318 321 323 328 328 328 332 335 334 335 335 335 335 334 337
320 320 320 321 323 324 322 324 324 323 322 323 324 323 321 318 318 318 317 318 318 317 317 317 319 320 321 322 324 325 325 324 324 324 322 321 322 323 322 321 320 320 321 322 321 319 320 321 316 316 318 318 319 327 328 326 328 330 332 334 335 333 333
320 320 320 322 321 323 321 322 322 321 322 321 322 322 320 319 320 320 319 318 319 319 317 316 317 316 318 319 320 321 322 322 321 321 322 322 322 321 321 319 318 319 318 316 317 317 316 315 314 314 316 315 314 315 321 324 326 325 325 327 330 332 333
322 321 320 320 321 321 321 320 321 321 321 320 321 319 319 320 320 319 320 319 318 318 318 318 317 317 317 317 318 318 318 319 319 318 318 318 319 319 319 318 318 318 319 316 316 317 316 314 314 312 311 311 311 312 315 323 321 323 324 322 322 328 331
324 322 321 321 322 320 321 320 320 319 320 319 319 319 319 321 320 320 320 318 317 318 318 316 317 317 318 317 317 317 318 318 317 318 315 316 316 316 315 316 315 316 316 317 317 317 316 315 314 311 312 313 310 311 312 314 314 316 318 321 324 325 327
325 324 322 322 323 321 321 321 319 319 319 321 320 319 319 320 320 321 321 320 318 318 317 318 318 318 318 315 317 317 317 317 317 317 316 316 316 315 315 313 314 313 314 316 316 315 314 313 312 312 311 311 311 308 310 310 313 312 316 321 323 326 326
325 323 322 323 325 322 322 322 320 321 319 321 321 322 320 321 322 322 321 320 319 319 318 318 317 317 318 316 317 318 317 318 317 316 316 316 315 313 313 313 313 312 312 313 313 314 313 313 312 312 311 306 306 308 307 309 312 313 314 318 319 319 321
327 325 323 323 325 325 325 322 321 321 320 321 323 324 322 322 322 322 321 321 319 319 318 318 318 317 317 316 316 317 316 316 317 317 316 316 315 314 314 313 313 311 312 311 312 312 312 314 313 313 311 309 306 304 308 307 308 310 316 316 319 321 322
330 328 325 327 328 328 327 324 322 322 322 322 323 325 323 323 323 322 321 321 320 319 319 317 317 317 317 317 316 316 316 317 317 315 315 315 315 315 314 313 312 313 313 313 312 313 314 314 314 313 312 309 309 307 305 305 307 308 311 315 314 318 321
330 330 329 330 330 328 328 326 324 322 323 323 324 325 324 323 322 322 322 321 321 319 318 318 317 317 317 316 316 316 315 316 315 315 315 314 313 314 312 313 313 313 314 313 313 313 313 314 313 313 313 313 312 308 307 305 307 312 310 314 315 316 322
330 330 330 331 331 329 327 326 326 324 325 325 322 324 324 322 322 321 322 321 321 319 318 318 318 317 317 316 316 315 315 316 314 313 313 313 312 313 311 311 311 311 313 313 314 314 314 312 313 312 313 313 313 313 310 309 306 312 316 313 314 316 316
328 328 330 331 330 328 327 326 326 326 325 324 322 323 322 322 322 321 321 321 320 319 318 317 318 317 317 316 316 314 314 313 312 312 312 312 310 312 311 310 310 310 311 310 312 313 311 312 312 311 312 313 313 313 311 310 308 308 314 314 315 316 317
329 328 329 330 329 329 328 328 327 326 326 324 322 322 321 321 321 321 321 320 319 319 318 317 317 317 316 315 315 314 313 312 311 311 311 311 311 310 309 308 309 309 311 310 311 311 310 310 311 311 311 310 310 312 311 309 307 308 312 315 315 314 316
328 328 329 329 329 328 328 327 328 326 326 325 323 322 321 322 321 321 320 320 319 318 317 317 316 316 315 314 314 314 314 312 311 310 311 309 310 310 310 309 307 309 309 307 310 309 309 309 309 308 309 310 308 309 311 308 307 307 307 311 311 314 313
326 328 328 328 328 327 327 328 328 327 326 325 324 323 321 322 321 320 320 320 319 318 317 316 316 315 315 314 313 313 313 312 311 311 310 309 307 309 309 309 308 309 309 308 309 310 310 309 310 308 309 309 309 309 309 308 306 305 306 307 311 309 311
327 327 326 326 327 328 327 327 326 326 325 325 323 323 322 322 321 320 320 319 319 317 316 316 315 315 314 313 312 312 311 312 311 310 309 308 307 307 307 307 308 308 308 307 308 308 308 309 309 308 308 309 310 309 310 310 309 307 306 305 308 308 310
326 326 327 326 326 326 327 326 326 324 324 324 324 323 322 323 321 320 320 319 318 317 316 315 314 314 314 314 313 312 311 311 311 310 309 308 308 307 306 306 306 307 307 307 307 307 308 308 306 307 306 306 306 307 309 310 309 309 307 306 307 309 310
326 326 326 327 326 325 325 325 325 325 324 323 324 324 324 322 321 320 321 319 318 317 316 315 314 314 313 313 313 312 311 310 310 308 308 307 306 306 306 305 305 306 305 306 306 306 307 307 307 307 306 306 305 306 307 307 307 307 306 306 307 306 309
325 326 327 327 327 325 325 325 324 324 324 323 323 323 323 322 322 321 320 319 317 316 315 315 314 314 313 312 312 311 310 310 308 308 306 304 304 304 304 304 305 305 305 305 305 305 306 306 306 306 307 307 306 306 306 306 306 305 305 305 305 306 306
325 326 326 327 326 326 325 325 324 324 324 323 323 323 322 322 321 321 320 318 317 316 315 314 314 313 312 312 311 311 309 308 306 306 305 303 304 303 303 303 303 303 303 304 304 304 303 302 303 304 305 306 306 305 305 304 304 304 304 304 304 304 305
322 324 325 325 325 325 325 325 325 324 324 323 323 322 322 319 318 318 318 317 316 315 315 314 313 312 312 311 311 309 307 305 305 304 303 303 303 303 302 303 302 303 302 298 297 297 298 298 299 299 301 303 303 304 304 304 304 303 303 303 303 304 304
320 321 323 323 324 324 324 324 324 324 323 323 323 322 322 320 318 316 315 314 314 314 314 314 308 303 305 310 308 306 306 305 303 303 302 302 302 302 302 302 303 299 299 298 297 295 294 295 296 298 299 301 301 301 301 302 302 302 302 301 302 302 302
316 319 320 321 323 323 322 322 322 322 322 322 321 320 319 317 315 316 315 314 313 313 314 310 295 294 294 298 305 306 305 303 302 302 302 301 301 302 302 302 303 302 300 299 299 294 293 294 293 293 294 296 297 298 298 298 299 300 300 300 302 302 301
312 315 318 319 320 321 321 321 320 320 321 321 319 318 316 315 315 315 315 313 312 312 310 296 292 292 293 294 298 305 304 303 302 302 301 301 301 301 301 302 302 303 302 302 301 299 298 294 292 292 292 292 292 292 293 297 298 298 299 299 300 301 302
310 312 315 318 320 321 320 319 319 319 319 319 318 316 316 315 315 315 314 313 312 309 304 292 291 292 292 293 293 299 303 303 302 301 301 301 301 300 300 300 301 302 302 302 299 300 301 300 295 293 292 292 292 292 291 290 292 297 298 297 298 298 300
309 311 314 318 319 318 319 318 320 320 319 319 318 316 316 316 315 314 314 312 311 310 303 292 291 291 291 291 291 294 303 302 301 301 300 300 301 301 301 301 300 300 301 301 301 300 300 300 298 299 299 300 300 298 293 291 290 290 294 298 298 296 299
308 309 311 314 317 317 317 318 318 318 318 318 317 316 315 316 316 315 313 312 311 309 302 291 290 290 290 290 289 292 303 302 301 301 301 301 301 301 301 301 301 301 301 301 301 299 298 298 298 297 297 298 299 299 301 301 301 301 299 299 299 299 300
309 310 311 313 314 315 316 316 316 317 317 318 317 317 317 316 314 313 313 312 311 308 301 290 290 290 290 290 289 298 301 302 301 301 301 301 301 301 301 301 301 300 301 300 297 292 294 297 296 296 296 297 298 299 300 298 296 296 299 300 301 300 301
309 310 311 311 312 314 315 315 316 316 316 316 316 316 315 315 314 312 311 311 310 306 298 291 290 290 290 289 292 299 301 301 301 301 301 302 301 301 301 301 301 300 300 299 295 291 290 292 296 295 295 296 297 297 298 299 296 293 292 292 292 292 291
308 309 310 311 311 314 315 316 316 316 315 315 315 315 314 313 313 312 310 308 307 305 302 293 290 290 290 289 293 299 301 300 300 300 300 301 301 301 301 299 299 299 299 299 293 290 290 293 295 295 295 295 294 295 296 298 298 298 294 292 291 291 291
309 309 309 310 312 314 315 315 316 316 315 315 315 315 313 311 310 309 308 307 303 306 305 297 289 290 290 290 294 299 299 299 299 300 300 300 301 301 301 300 298 297 298 297 291 290 289 292 295 295 294 293 292 292 294 296 296 295 296 296 297 297 296
310 310 310 311 313 314 315 315 315 315 315 315 314 313 310 310 308 308 307 306 305 306 304 303 296 289 291 290 290 298 300 298 298 299 299 299 299 300 300 300 298 292 290 291 290 289 289 289 293 294 293 292 291 290 294 295 295 294 294 294 294 294 295
310 310 312 313 313 314 314 314 314 314 314 314 312 310 308 308 306 306 306 307 305 304 305 304 299 289 290 290 288 290 299 299 299 299 298 298 298 297 297 298 298 294 289 289 289 288 288 288 289 293 293 291 292 292 291 292 292 290 292 292 292 292 292
311 311 312 313 313 312 313 314 313 312 310 309 308 307 305 305 304 304 305 305 305 304 302 300 302 291 289 289 289 289 297 299 298 297 296 295 296 296 297 297 298 294 287 289 288 288 288 288 288 292 292 289 288 288 290 291 291 290 290 290 290 290 291
310 311 312 312 311 311 312 312 311 309 308 307 305 303 303 304 304 303 302 302 303 303 303 299 293 298 290 290 289 289 289 292 290 296 296 295 296 296 297 297 297 291 287 288 288 288 288 288 288 290 288 288 288 287 288 290 289 289 289 289 289 289 290
310 312 312 311 310 310 310 309 308 307 306 304 302 301 302 303 302 300 299 299 300 300 300 300 293 291 294 288 289 288 288 287 288 294 295 295 296 296 297 297 295 288 288 288 288 288 288 288 290 288 287 287 287 288 290 289 289 289 288 288 288 288 289
Wind_Speed
6 7 7 5 5 5 5 5 5 5 5 6 5 6 6 6 6 6 5 5 4 4 4 4 4 4 4 4 5 5 4 4 5 3 3 3 1 2 4 3 3 3 3 0 2 2 2 3 2 2 2 1 4 4 4 6 8 3 3 4 6 6 6
6 7 6 6 6 5 5 4 4 5 5 5 6 6 7 7 6 6 6 5 5 5 4 5 5 6 6 5 6 6 5 5 4 3 2 3 3 4 3 2 2 2 1 2 2 1 1 3 2 1 0 1 3 5 4 4 5 5 6 6 6 7 6
6 6 6 7 6 6 6 5 5 4 5 5 6 7 7 8 7 7 7 7 6 6 6 6 6 6 6 6 6 6 6 6 5 5 4 2 3 3 4 4 4 4 2 1 1 5 3 3 5 6 4 3 4 2 3 6 9 9 7 7 8 9 8
9 7 7 7 7 6 6 6 5 5 5 5 6 6 7 7 7 7 6 6 6 5 5 5 5 5 5 5 5 6 6 6 5 5 5 4 3 3 4 4 3 3 3 3 3 3 4 4 4 5 5 5 6 6 4 6 6 9 10 9 8 8 8
10 8 8 8 8 8 7 6 5 5 5 6 5 6 6 6 6 6 7 7 6 5 5 5 5 5 5 5 4 4 5 5 5 4 4 4 4 3 3 3 3 2 2 2 3 2 2 3 4 5 6 6 7 6 6 4 6 9 10 11 9 8 7
10 9 8 8 8 7 7 7 6 6 6 6 6 6 6 6 5 6 5 6 6 5 6 5 5 5 5 5 5 6 5 5 5 5 5 5 4 3 3 2 2 2 2 2 3 2 2 3 4 5 5 5 7 7 8 8 7 7 8 8 7 8 8
9 9 8 7 8 7 7 7 7 6 6 6 7 6 7 6 5 5 5 6 6 6 6 6 5 5 4 5 5 6 6 5 5 5 5 5 4 3 3 2 3 3 2 2 2 2 2 3 4 4 5 5 6 8 8 8 8 7 6 5 5 5 5
9 9 8 7 8 8 7 8 7 6 6 6 7 7 8 6 6 6 6 6 6 6 6 5 5 5 4 4 5 5 4 4 4 4 4 4 4 4 3 3 2 2 3 3 3 3 4 3 4 4 5 7 7 6 7 7 8 8 7 6 5 6 6
7 8 8 8 7 8 8 8 8 7 6 7 7 8 8 7 7 7 7 6 6 6 5 5 5 4 4 4 4 4 4 3 4 4 3 4 3 3 2 3 2 2 3 3 4 3 4 4 4 4 4 5 7 8 5 6 6 7 7 6 5 4 4
9 8 8 9 9 9 8 8 8 9 8 8 8 9 9 9 8 8 7 7 7 6 6 5 5 5 5 4 4 4 4 3 3 4 3 3 3 1 2 2 3 2 1 3 3 4 4 4 4 4 4 5 5 7 8 7 5 5 6 6 6 5 6
10 10 8 8 9 9 8 8 8 9 9 9 9 9 9 10 9 9 8 8 7 7 7 6 6 6 5 5 5 4 4 4 3 3 2 2 2 2 2 2 3 2 2 3 3 3 4 4 4 4 4 5 5 6 7 8 7 5 6 6 6 6 6
9 8 8 8 8 9 10 9 10 9 10 10 10 10 10 10 10 9 8 8 8 8 7 6 6 6 5 5 5 5 4 3 3 3 3 2 2 2 2 2 2 2 2 2 3 3 3 3 4 5 5 5 5 6 7 7 8 5 3 5 5 7 8
9 9 8 8 8 9 10 11 11 10 11 10 11 12 11 11 11 11 10 9 9 8 8 7 6 5 5 5 5 4 5 4 4 3 3 2 1 1 0 1 2 3 3 4 3 3 4 4 4 5 5 5 5 5 6 7 9 9 7 7 7 7 8
10 9 9 9 9 9 8 9 10 10 10 11 11 12 12 13 12 12 11 11 10 9 9 8 6 6 5 5 4 5 5 5 4 4 3 4 3 1 1 1 1 1 2 4 4 4 4 4 4 5 5 5 6 6 6 8 9 9 7 6 7 7 8
9 9 10 9 9 9 8 9 9 10 11 11 12 13 14 12 12 13 12 12 11 10 10 9 8 6 6 6 6 4 4 4 4 3 3 2 2 2 1 1 2 1 2 4 4 6 5 4 5 6 5 5 6 6 5 7 8 9 10 7 7 7 9
11 11 11 10 10 10 9 9 9 10 11 11 12 12 13 13 13 13 13 12 12 11 10 9 8 7 7 7 7 6 5 5 4 4 3 2 1 0 1 1 2 1 1 3 4 5 4 5 5 6 6 6 7 7 7 7 8 9 10 9 8 8 7
10 11 11 11 11 11 10 9 10 10 11 10 12 12 13 14 14 14 13 13 12 11 11 10 9 8 9 8 7 7 6 5 5 4 3 2 1 2 1 2 1 2 2 3 4 4 5 4 5 6 7 7 7 7 7 8 9 9 9 10 9 9 8
9 10 9 8 10 10 10 9 9 11 11 11 12 12 13 14 14 15 13 14 13 12 12 11 11 10 9 8 8 7 7 6 5 4 3 2 2 3 2 2 2 2 2 4 4 4 4 6 7 7 7 7 8 7 7 7 8 9 10 11 10 9 9
8 9 8 7 9 11 11 12 11 10 12 12 13 12 14 13 13 15 14 14 13 13 12 12 11 11 10 9 8 7 6 6 5 4 3 3 2 2 2 2 2 3 3 4 4 4 6 7 6 7 8 8 9 9 9 10 10 10 12 11 11 11 9
7 8 9 9 9 10 11 11 11 11 10 11 12 13 13 14 13 14 14 13 13 13 13 12 11 11 10 9 8 8 7 6 5 4 3 3 3 2 2 2 2 2 3 3 4 5 6 7 7 8 8 8 8 8 9 9 10 11 12 12 11 10 10
6 7 7 8 9 10 10 11 11 10 10 11 11 12 11 9 8 11 13 14 14 13 13 12 11 11 10 9 8 8 6 5 5 4 3 3 3 3 3 3 3 2 2 2 4 5 6 7 7 8 8 8 8 9 9 10 10 10 11 11 11 10 9
4 5 6 6 8 9 10 11 11 11 10 10 10 11 11 14 14 13 12 12 13 11 11 10 10 10 10 9 8 7 6 5 4 4 3 3 3 3 3 3 3 2 3 4 5 6 7 7 7 8 8 9 9 10 10 10 10 10 10 11 11 10 10
5 5 5 6 7 8 9 10 10 11 11 11 10 11 12 13 14 14 14 14 13 11 9 7 7 11 9 8 8 6 5 5 4 3 3 3 3 3 3 3 3 4 4 7 9 9 10 10 10 9 9 9 9 10 10 11 11 10 11 11 11 11 11
6 6 5 6 5 6 8 8 8 9 10 10 8 11 12 13 11 9 12 13 13 10 9 6 12 10 9 7 6 6 5 5 4 4 4 4 3 3 4 4 4 7 11 12 12 15 13 12 12 13 13 13 12 11 11 12 12 11 12 12 12 12 12
7 7 6 6 6 6 6 7 8 8 8 10 11 11 12 14 15 14 12 13 11 9 8 12 12 11 10 8 5 5 4 4 4 4 4 4 4 4 4 4 5 4 5 5 6 7 9 14 15 14 14 14 14 15 16 14 13 12 12 13 13 13 13
7 7 6 6 6 6 5 6 7 8 9 10 11 12 13 14 14 14 12 12 10 9 10 13 14 13 11 9 6 4 5 4 4 5 4 5 5 5 5 5 6 5 5 6 7 7 7 7 7 12 15 16 17 17 16 17 18 16 15 16 15 15 14
7 7 6 6 5 6 6 6 7 8 8 10 11 11 13 15 14 13 12 12 11 10 10 13 14 13 12 10 9 6 3 5 4 4 5 5 5 6 7 7 6 6 6 7 7 7 7 8 10 10 10 10 10 12 17 21 21 21 19 16 16 17 15
7 7 8 7 6 6 6 6 7 8 8 9 10 11 12 14 13 12 12 11 10 10 10 15 13 13 12 11 11 7 4 4 4 5 6 6 7 7 7 7 8 8 8 7 7 6 9 10 11 10 11 12 11 12 12 12 12 13 14 15 17 17 17
7 7 8 8 8 8 7 8 8 8 8 9 9 10 10 11 12 12 11 12 11 10 11 16 14 14 13 11 10 6 4 5 5 6 6 7 7 7 7 8 8 9 9 8 9 4 6 8 12 13 13 12 12 12 12 11 12 11 13 14 14 14 12
8 8 8 9 9 8 8 8 8 8 9 10 9 10 11 11 10 11 11 10 9 9 10 13 14 13 12 11 9 6 4 5 5 6 6 7 7 8 8 9 8 8 9 10 9 3 3 5 12 13 13 13 13 13 12 11 13 12 12 14 16 18 19
10 9 9 10 9 8 8 8 8 8 9 10 10 10 9 9 10 10 10 10 9 9 10 12 12 11 11 12 9 5 4 5 6 7 7 7 8 8 9 6 7 11 12 11 9 3 1 6 12 12 13 15 16 15 14 13 12 12 12 12 14 16 17
10 10 11 10 9 9 9 9 8 8 9 10 10 10 9 9 10 10 10 10 7 7 8 11 13 11 11 12 8 6 6 6 7 7 7 8 8 8 8 7 10 11 11 12 10 8 6 7 11 14 15 16 16 16 15 15 14 15 14 15 14 13 13
10 11 11 11 10 9 8 8 9 9 10 10 9 10 9 9 11 9 9 9 7 6 7 8 12 12 9 7 6 7 6 7 8 8 8 8 9 9 9 9 9 11 14 13 10 8 7 6 9 13 15 15 16 17 14 15 15 13 15 15 15 15 16
11 11 11 11 10 9 8 8 9 10 9 9 9 9 10 10 10 9 8 9 10 7 4 6 9 10 8 7 6 5 6 7 8 8 9 9 9 10 10 10 9 8 8 4 3 4 6 7 9 11 16 17 17 16 15 15 17 18 17 17 17 16 15
10 10 11 11 11 10 9 9 8 8 7 8 10 8 8 8 9 9 8 6 6 6 5 6 9 10 10 8 7 4 5 5 5 7 9 9 10 10 10 10 11 6 10 8 7 8 9 10 12 13 17 19 18 17 17 18 17 15 15 14 14 14 14
10 9 10 11 12 11 8 7 7 7 8 8 9 9 9 8 9 9 8 7 6 6 6 7 5 7 10 6 6 6 4 5 3 6 8 9 10 10 10 11 12 10 16 15 15 15 17 18 16 15 17 16 16 16 16 16 16 15 15 14 14 14 14
10 10 12 12 10 9 7 6 7 7 6 7 7 9 8 9 8 8 8 7 6 6 5 6 8 7 6 5 2 3 4 5 5 5 7 9 10 10 11 11 11 19 19 18 18 17 17 18 16 19 19 20 20 18 14 15 15 14 14 14 14 15 15
Wind_Direction
148 130 136 130 121 118 115 119 116 113 107 104 104 103 105 103 103 102 99 93 92 96 100 92 90 87 91 81 60 51 45 42 50 51 55 19 307 205 205 193 220 241 108 302 331 298 293 284 235 210 205 337 319 308 291 264 275 293 255 251 255 242 239
141 138 143 138 134 127 125 123 112 103 96 89 96 105 104 101 99 95 91 86 79 86 92 96 87 82 76 72 71 64 57 60 45 33 44 39 26 19 338 348 22 14 6 69 45 15 314 299 296 132 10 294 285 275 266 286 295 280 267 255 253 270 262
151 144 151 144 143 149 134 132 130 125 115 111 107 105 107 104 100 98 93 89 83 72 70 79 87 83 80 77 71 73 79 80 63 47 45 38 23 14 359 346 348 344 281 219 71 10 338 313 299 300 307 296 280 237 257 274 271 262 257 246 248 246 247
160 157 156 155 155 161 149 146 146 132 128 119 119 116 111 109 104 98 96 95 89 85 85 85 79 84 88 86 84 80 73 70 73 79 74 56 40 44 15 23 8 16 2 339 347 348 338 323 320 302 307 305 304 298 257 241 266 289 271 257 251 250 256
166 168 172 166 165 166 158 154 147 145 140 135 135 128 126 120 115 108 106 104 98 96 89 84 87 89 86 85 82 81 83 80 84 79 68 62 52 57 38 25 23 360 18 358 22 335 331 324 318 304 301 309 299 289 297 295 264 258 267 269 261 246 235
175 175 179 175 174 172 167 163 157 159 154 155 151 145 138 137 126 124 120 112 110 102 97 92 83 75 79 81 83 82 75 74 71 69 71 60 43 24 38 31 6 11 8 20 335 341 325 309 288 291 293 308 300 300 290 279 266 256 258 261 251 252 245
182 179 183 182 178 183 172 167 171 166 166 165 159 156 150 151 137 123 116 110 109 112 110 104 97 93 90 95 92 84 85 81 80 81 82 76 66 51 8 4 3 355 349 345 327 286 299 292 293 299 304 293 289 289 295 290 286 284 263 255 260 264 278
191 183 186 187 180 182 176 170 177 172 171 169 166 155 157 155 139 134 127 124 121 116 114 110 107 102 93 86 86 82 81 81 81 70 70 61 63 54 38 358 353 342 334 328 324 307 303 302 300 306 305 304 294 281 288 294 301 288 291 288 287 279 265
209 196 190 186 183 183 177 175 176 177 174 168 164 156 164 159 152 145 144 136 133 130 124 123 122 111 107 103 98 96 91 87 91 93 98 93 68 51 27 353 305 359 332 335 310 329 313 322 303 287 282 282 291 296 291 291 294 294 315 305 308 300 297
210 209 199 182 177 176 180 181 179 179 171 170 162 162 167 165 162 159 152 147 146 141 137 133 126 123 126 115 107 107 101 97 86 72 53 55 77 35 46 351 327 321 355 328 306 316 315 299 291 291 286 280 290 286 292 291 283 285 292 319 317 321 314
209 210 209 190 181 175 178 183 181 175 176 171 165 165 168 168 167 165 159 157 153 151 149 146 143 139 141 126 125 121 107 112 116 97 84 68 41 35 17 356 335 314 17 307 331 311 301 303 288 286 279 272 260 268 283 288 289 284 281 285 281 299 334
217 215 213 207 194 185 180 182 184 183 175 170 169 167 171 171 172 171 169 164 160 158 158 152 154 153 148 135 139 126 134 139 115 112 91 75 47 21 18 339 335 313 328 301 290 266 264 268 279 277 273 271 273 273 278 280 284 272 292 300 305 306 309
220 221 216 209 206 204 191 183 182 183 179 176 174 172 176 176 176 176 175 170 167 165 163 161 164 153 157 145 149 135 134 147 137 136 129 118 106 65 319 301 325 327 329 303 271 279 283 270 279 286 282 281 277 272 278 277 274 280 290 296 301 292 284
222 220 218 212 214 212 208 196 185 182 179 183 178 177 180 180 180 180 178 176 174 171 167 166 164 164 162 149 136 137 149 151 153 136 143 153 152 162 353 320 294 292 295 288 303 294 278 287 271 264 271 277 273 272 272 278 280 286 286 288 292 295 302
229 226 223 218 216 217 209 204 195 184 182 184 184 183 184 181 183 183 182 181 178 175 173 169 169 171 164 155 152 157 160 160 152 140 155 146 141 166 201 285 318 325 308 299 293 288 290 283 282 274 258 259 279 285 281 285 286 288 291 295 289 297 298
226 225 225 223 219 217 213 207 197 192 188 184 187 189 188 183 184 185 184 183 180 176 175 170 172 175 167 169 168 164 168 167 167 165 173 165 212 103 237 273 286 316 271 282 288 284 291 278 285 295 294 290 287 284 281 279 289 288 291 292 292 288 285
235 230 225 224 224 217 213 208 202 201 198 190 187 190 191 186 185 186 184 183 179 175 175 171 174 177 175 175 174 171 172 172 175 177 182 201 221 267 277 275 268 266 284 286 291 300 289 295 290 293 297 284 269 267 269 274 267 274 283 287 289 290 292
246 243 239 244 240 231 222 215 209 206 202 198 194 188 190 189 187 186 184 182 178 178 176 175 176 176 173 176 175 170 177 172 175 180 183 205 213 247 257 259 276 288 281 284 286 283 303 306 300 297 296 296 288 286 281 273 276 276 280 281 286 286 286
260 252 239 227 241 239 229 223 216 212 209 204 196 192 189 189 188 187 182 181 179 179 179 179 178 175 174 173 173 173 174 174 177 185 184 214 225 227 235 253 257 268 287 283 289 297 293 291 293 288 288 292 298 300 296 291 284 278 277 277 278 282 276
278 267 253 241 234 235 232 231 225 219 214 213 203 196 193 190 185 183 180 179 179 180 180 179 177 176 173 173 173 171 172 173 180 178 195 198 194 202 229 234 247 248 262 278 286 288 292 292 285 284 279 277 278 283 283 285 286 286 285 285 283 278 281
302 288 273 259 249 246 246 243 238 230 218 216 214 207 197 181 184 185 180 178 179 179 178 178 176 174 175 172 171 170 167 174 180 177 182 192 177 192 193 212 225 241 258 289 315 307 302 291 295 291 288 285 284 280 279 276 275 276 278 279 279 284 283
293 281 281 276 265 260 255 251 246 239 228 217 212 209 170 168 177 188 181 177 175 172 176 178 177 175 172 169 166 166 165 170 175 180 187 182 184 191 203 194 218 200 58 360 329 298 291 297 291 282 282 285 283 280 276 275 275 274 274 273 275 276 275
296 301 283 273 269 266 261 254 248 245 241 230 221 204 178 172 172 175 176 174 170 173 174 186 149 157 159 162 163 154 155 167 181 182 194 192 200 217 222 245 218 147 180 217 232 234 236 245 247 261 280 287 284 281 279 278 274 273 273 273 273 276 276
314 299 297 288 277 263 261 257 253 247 238 231 207 190 175 168 166 173 183 177 171 164 166 129 118 117 111 128 149 150 162 166 173 188 195 208 233 230 237 235 265 185 196 214 220 218 230 234 232 238 246 252 263 270 276 276 274 274 273 275 275 272 272
311 308 298 289 280 270 261 256 251 244 231 202 177 181 176 181 181 185 187 184 169 157 139 124 131 130 136 142 154 156 165 173 180 196 202 213 227 235 245 256 253 264 266 268 296 283 235 213 221 230 232 236 239 245 250 260 269 270 270 271 270 268 269
306 302 293 288 283 267 250 236 234 233 227 222 208 194 195 193 190 186 178 161 143 128 121 146 144 153 153 152 155 203 176 178 200 200 213 218 240 254 259 259 261 256 268 188 224 254 281 287 232 213 219 224 229 232 238 236 240 251 268 269 270 271 268
303 301 293 277 269 262 245 239 239 240 235 227 219 205 198 193 187 177 168 161 150 146 146 152 153 159 157 157 166 216 187 184 220 228 226 234 236 245 247 256 264 266 268 269 277 273 282 289 299 297 287 282 278 244 223 225 232 235 236 249 259 264 268
300 294 290 281 264 254 245 239 242 240 227 208 202 205 197 190 184 176 166 162 160 151 143 151 163 163 161 165 176 215 203 193 225 232 235 242 248 252 259 258 262 265 270 272 276 292 287 290 294 294 288 284 278 275 276 269 251 234 227 228 242 251 263
295 286 279 273 262 249 238 233 233 234 235 230 215 211 207 191 179 172 163 161 157 147 139 158 167 167 163 172 173 209 213 219 234 242 246 249 252 257 257 261 264 270 274 275 280 233 236 281 292 290 287 284 281 278 274 268 267 265 269 276 276 277 280
295 285 278 270 260 250 242 232 227 225 232 231 217 204 186 182 174 164 159 147 139 123 137 171 170 168 167 162 181 218 234 247 252 251 254 258 263 265 263 263 264 275 280 283 296 308 242 252 291 290 289 288 285 284 280 277 267 260 242 242 253 265 274
292 285 275 267 262 251 241 236 229 223 228 226 218 206 185 168 160 154 143 132 129 138 155 166 170 171 166 175 203 234 264 267 270 273 272 269 271 272 271 248 258 270 274 277 286 298 254 279 294 294 295 295 292 289 285 284 284 276 258 235 231 240 250
290 282 275 268 261 250 237 234 231 223 225 225 217 204 180 157 143 128 122 126 152 157 146 160 176 174 182 183 206 245 269 276 280 280 284 283 279 282 282 257 210 226 256 272 273 265 260 266 284 295 297 296 292 287 285 287 284 283 280 279 272 262 252
281 275 271 268 260 250 241 235 231 226 222 220 207 194 166 158 141 132 134 141 162 178 144 151 174 184 174 170 226 276 289 291 290 291 290 289 294 288 286 282 275 223 221 242 263 277 276 264 268 285 291 287 286 282 285 283 282 287 286 282 278 275 274
278 273 265 263 260 250 242 236 231 225 216 208 197 183 161 145 133 131 146 152 157 163 139 135 141 151 138 151 152 230 274 285 288 292 292 297 291 294 291 291 290 320 75 122 180 226 237 237 245 275 284 280 275 285 300 288 284 286 279 276 274 272 271
273 271 263 257 255 252 244 237 224 202 187 169 158 133 109 117 124 136 137 131 134 142 104 67 124 137 139 152 160 214 278 295 346 307 297 289 290 285 292 292 296 17 54 5 344 309 286 280 276 280 280 278 283 286 281 278 281 280 276 272 270 270 269
270 262 256 252 250 250 237 222 194 167 162 154 131 104 110 123 143 144 145 150 146 142 134 119 96 119 130 135 141 188 212 281 352 281 287 288 290 289 287 296 285 13 345 330 319 314 305 298 290 281 281 279 276 272 272 274 273 273 269 267 266 266 264
266 256 248 244 240 244 224 198 186 171 131 107 103 123 137 147 133 132 151 154 148 137 131 119 113 88 101 106 143 204 206 222 254 281 300 292 289 290 289 295 332 337 319 314 299 290 285 280 280 281 276 272 270 268 271 274 270 265 264 263 261 257 256